Weather History for Jaffrey, NH

Change the Weather History Date:

Saturday, June 22, 2013

  Actual Average Record
Temperature  
Mean Temperature 68 °F -  
Max Temperature 82 °F 75 °F 91 °F (2012)
Min Temperature 55 °F 54 °F 43 °F (2014)
Cooling Degree Days 4    
Growing Degree Days 18 (Base 50)    
Moisture  
Dew Point 57 °F    
Average Humidity 66    
Maximum Humidity 93    
Minimum Humidity 38    
Precipitation  
Precipitation 0.00 in - - ()
Sea Level Pressure  
Sea Level Pressure 30.21 in    
Wind  
Wind Speed 4 mph (SSW)    
Max Wind Speed 12 mph    
Max Gust Speed 22 mph    
Visibility 10 miles    
Events      
Averages and records for this station are not official NWS values.
T = Trace of Precipitation, MM = Missing Value Source: NWS Daily Summary

Daily Weather History Graph

Daily Weather History Graph

Search for Another Location

Airport:

Trip Planner

Search our weather history database for the weather conditions in past years. The results will help you decide how hot, cold, wet, or windy it might be!

Date:

Astronomy

Jun. 22, 2013 Rise Set
Actual Time 5:09 AM EDT 8:30 PM EDT
Civil Twilight 4:34 AM EDT 9:05 PM EDT
Nautical Twilight 3:48 AM EDT 9:51 PM EDT
Astronomical Twilight 2:52 AM EDT 10:47 PM EDT
Moon 7:40 PM EDT (6/22) 4:21 AM EDT (6/22)
Length of Visible Light 16h 30m
Length of Day
15h 20m
Waxing Gibbous, 99% of the Moon is Illuminated
Jun 22
Waxing Gibbous
Jun 23
Full
Jun 30
Last Quarter
Jul 8
New
Jul 15
First Quarter

Hourly Weather History & Observations

Time (EDT) Temp. Heat Index Dew Point Humidity Pressure Visibility Wind Dir Wind Speed Gust Speed Precip Events Conditions
12:52 AM 57.0 °F - 55.0 °F 93% 30.26 in 10.0 mi Calm Calm - N/A   Clear
1:52 AM 57.9 °F - 55.9 °F 93% 30.27 in 9.0 mi Calm Calm - N/A   Mostly Cloudy
2:52 AM 57.9 °F - 55.9 °F 93% 30.26 in 8.0 mi Calm Calm - N/A   Clear
3:52 AM 57.0 °F - 55.0 °F 93% 30.25 in 7.0 mi Calm Calm - N/A   Clear
4:52 AM 55.9 °F - 54.0 °F 93% 30.25 in 7.0 mi Calm Calm - N/A   Clear
5:52 AM 57.9 °F - 55.9 °F 93% 30.24 in 6.0 mi Calm Calm - N/A   Clear
6:52 AM 61.0 °F - 57.0 °F 87% 30.24 in 10.0 mi South 4.6 mph - N/A   Clear
7:52 AM 64.0 °F - 55.0 °F 73% 30.23 in 10.0 mi Variable 4.6 mph - N/A   Clear
8:52 AM 66.0 °F - 57.0 °F 73% 30.24 in 10.0 mi SSW 5.8 mph - N/A   Overcast
9:52 AM 70.0 °F - 57.9 °F 65% 30.25 in 10.0 mi SSW 6.9 mph - N/A   Mostly Cloudy
10:52 AM 75.0 °F - 59.0 °F 57% 30.25 in 10.0 mi SSW 8.1 mph - N/A   Clear
11:52 AM 78.1 °F - 59.0 °F 52% 30.24 in 10.0 mi SSW 9.2 mph - N/A   Clear
12:52 PM 78.1 °F - 60.1 °F 54% 30.22 in 10.0 mi SSW 8.1 mph - N/A   Scattered Clouds
1:52 PM 81.0 °F 81.1 °F 57.9 °F 45% 30.22 in 10.0 mi WSW 11.5 mph 21.9 mph N/A   Scattered Clouds
2:52 PM 80.1 °F 80.4 °F 57.0 °F 45% 30.20 in 10.0 mi SSW 9.2 mph - N/A   Mostly Cloudy
3:52 PM 81.0 °F 81.0 °F 57.0 °F 44% 30.17 in 10.0 mi South 11.5 mph - N/A   Mostly Cloudy
4:52 PM 82.0 °F 81.3 °F 54.0 °F 38% 30.16 in 10.0 mi South 8.1 mph - N/A   Clear
5:52 PM 80.1 °F 80.2 °F 55.9 °F 43% 30.16 in 10.0 mi Variable 6.9 mph - N/A   Clear
6:52 PM 78.1 °F - 57.0 °F 48% 30.14 in 10.0 mi SSW 9.2 mph - N/A   Clear
7:52 PM 75.9 °F - 57.9 °F 54% 30.15 in 10.0 mi SSW 3.5 mph - N/A   Clear
8:52 PM 73.0 °F - 57.9 °F 59% 30.17 in 10.0 mi SSW 4.6 mph - N/A   Clear
9:52 PM 71.1 °F - 57.9 °F 63% 30.17 in 10.0 mi South 3.5 mph - N/A   Clear
10:52 PM 70.0 °F - 57.9 °F 65% 30.18 in 10.0 mi SSW 4.6 mph - N/A   Clear
11:52 PM 69.1 °F - 59.0 °F 70% 30.18 in 10.0 mi SSW 4.6 mph - N/A   Overcast